FW2218 Weather Reports


Display with metric or nautical units.
time (UTC)temp
F
wind
direction
speed
MPH
gust
MPH
rain 1hr
in
rain 24hr
in
rain mn
in
humidity
%
barometer
mb
20260510150035 57 60 2.0 5.0 0.00 0.00 0.00 68 1011.0
20260510144530 57 88 3.0 7.0 0.00 0.00 0.00 65 1010.8
20260510143031 56 81 5.0 8.0 0.00 0.00 0.00 61 1010.7
20260510141532 56 98 5.0 9.0 0.00 0.00 0.00 59 1010.6
20260510140031 56 98 4.0 7.0 0.00 0.00 0.00 59 1010.8
20260510134532 55 123 2.0 7.0 0.00 0.00 0.00 61 1010.6
20260510133102 55 105 5.0 8.0 0.00 0.00 0.00 63 1010.6
20260510131530 54 111 5.0 8.0 0.00 0.00 0.00 65 1010.5
20260510130104 53 106 5.0 8.0 0.00 0.00 0.00 65 1010.6
20260510124531 53 107 4.0 5.0 0.00 0.00 0.00 64 1010.8
20260510123032 53 92 2.0 4.0 0.00 0.00 0.00 63 1010.7
20260510120105 52 19 1.0 4.0 0.00 0.00 0.00 65 1010.7
20260510114530 53 87 3.0 5.0 0.00 0.00 0.00 62 1010.4
20260510113030 53 112 3.0 4.0 0.00 0.00 0.00 65 1010.3
20260510111608 52 76 2.0 3.0 0.00 0.00 0.00 68 1010.3
20260510110032 52 67 0.0 0.0 0.00 0.00 0.00 67 1010.5
20260510104605 53 67 0.0 1.0 0.00 0.00 0.00 66 1010.5
20260510103030 53 67 1.0 2.0 0.00 0.00 0.00 65 1010.4
20260510101528 54 67 0.0 1.0 0.00 0.00 0.00 62 1010.5
20260510100027 55 67 2.0 3.0 0.00 0.00 0.00 61 1010.4
20260510094537 55 67 1.0 3.0 0.00 0.00 0.00 58 1010.4
20260510093031 56 76 1.0 4.0 0.00 0.00 0.00 55 1010.5
20260510090032 57 114 1.0 5.0 0.00 0.00 0.00 54 1010.7
20260510084530 57 120 2.0 5.0 0.00 0.00 0.00 57 1010.8
20260510083030 57 112 4.0 6.0 0.00 0.00 0.00 57 1010.9
20260510081604 57 47 1.0 5.0 0.00 0.00 0.00 56 1010.9
20260510080028 58 70 1.0 3.0 0.00 0.00 0.00 54 1010.9
20260510074645 58 123 2.0 4.0 0.00 0.00 0.00 55 1010.9
20260510073030 58 168 0.0 1.0 0.00 0.00 0.00 56 1010.9
20260510070108 59 202 0.0 2.0 0.00 0.00 0.00 53 1010.8
20260510064530 60 199 1.0 2.0 0.00 0.00 0.00 51 1010.8
20260510061529 62 157 0.0 0.0 0.00 0.00 0.00 48 1010.7
20260510060031 62 157 0.0 2.0 0.00 0.00 0.00 47 1010.6
20260510054609 63 160 0.0 3.0 0.00 0.00 0.00 46 1010.5
20260510053031 65 205 1.0 2.0 0.00 0.00 0.00 42 1010.5
20260510044529 68 110 3.0 6.0 0.00 0.00 0.00 34 1010.4
20260510043105 68 141 3.0 5.0 0.00 0.00 0.00 36 1010.3
20260510034528 70 129 2.0 4.0 0.00 0.00 0.00 33 1009.7
20260510033030 70 151 1.0 4.0 0.00 0.00 0.00 33 1009.7
20260510031525 70 157 0.0 2.0 0.00 0.00 0.00 32 1009.6
20260510030026 71 157 0.0 2.0 0.00 0.00 0.00 31 1009.5
20260510024532 73 144 1.0 2.0 0.00 0.00 0.00 29 1009.4
20260510021531 77 105 2.0 5.0 0.00 0.00 0.00 27 1009.4
20260510020028 78 73 1.0 4.0 0.00 0.00 0.00 30 1009.4
20260510014530 77 84 1.0 3.0 0.00 0.00 0.00 25 1009.5
20260510011647 80 337 1.0 5.0 0.00 0.00 0.00 24 1009.8
20260510001531 81 334 2.0 5.0 0.00 0.00 0.00 23 1010.1
20260510000033 82 349 4.0 7.0 0.00 0.00 0.00 23 1010.3
20260509234529 82 349 3.0 7.0 0.00 0.00 0.00 22 1010.5
20260509233054 82 332 3.0 8.0 0.00 0.00 0.00 24 1010.7
20260509230029 81 320 4.0 8.0 0.00 0.00 0.00 26 1011.3
20260509224532 80 328 3.0 6.0 0.00 0.00 0.00 26 1011.5
20260509223029 80 316 4.0 7.0 0.00 0.00 0.00 27 1011.8
20260509221604 80 300 4.0 7.0 0.00 0.00 0.00 29 1012.0
20260509213030 79 307 4.0 7.0 0.00 0.00 0.00 31 1012.8
20260509211531 79 320 3.0 6.0 0.00 0.00 0.00 34 1013.1
20260509210107 78 305 3.0 6.0 0.00 0.00 0.00 35 1013.2
20260509204608 77 307 3.0 7.0 0.00 0.00 0.00 36 1013.4
20260509201530 76 285 4.0 8.0 0.00 0.00 0.00 36 1013.9
20260509194604 74 351 3.0 7.0 0.00 0.00 0.00 37 1014.4
20260509193144 74 294 4.0 7.0 0.00 0.00 0.00 38 1014.6
20260509191603 72 289 2.0 5.0 0.00 0.00 0.00 42 1014.8
20260509190030 71 302 2.0 6.0 0.00 0.00 0.00 43 1015.2
20260509183107 70 319 2.0 5.0 0.00 0.00 0.00 47 1015.5
20260509181605 69 15 1.0 5.0 0.00 0.00 0.00 47 1015.5
20260509180028 69 311 2.0 6.0 0.00 0.00 0.00 52 1015.6
20260509174531 67 319 3.0 6.0 0.00 0.00 0.00 53 1015.7
20260509173030 66 325 2.0 6.0 0.00 0.00 0.00 55 1015.8
20260509171530 65 351 2.0 7.0 0.00 0.00 0.00 56 1016.0
20260509163031 62 5 1.0 6.0 0.00 0.00 0.00 60 1016.5
20260509161530 61 337 1.0 4.0 0.00 0.00 0.00 62 1016.7
20260509160031 60 337 2.0 4.0 0.00 0.00 0.00 65 1016.8
20260509153030 58 26 3.0 5.0 0.00 0.00 0.00 65 1016.7